Westfield, MA

12:20 AM EDT on September 29, 2016 (GMT -0400)
Barnes Municipal

Weather History for KBAF - October, 2013

Change the Weather History Date:

Monday, October 7, 2013

  Actual Average Record
Temperature  
Mean Temperature 65 °F -  
Max Temperature 77 °F 63 °F 78 °F (1997)
Min Temperature 55 °F 40 °F 26 °F (1999)
Growing Degree Days 15 (Base 50)    
Moisture  
Dew Point 59 °F    
Average Humidity 91    
Maximum Humidity 100    
Minimum Humidity 73    
Precipitation  
Precipitation 0.41 in - - ()
Sea Level Pressure  
Sea Level Pressure 29.92 in    
Wind  
Wind Speed 6 mph (WNW)    
Max Wind Speed 21 mph    
Max Gust Speed 37 mph    
Visibility 6 miles    
Events Fog , Rain    
Averages and records for this station are not official NWS values.
T = Trace of Precipitation, MM = Missing Value Source: NWS Daily Summary

Daily Weather History Graph

Daily Weather History Graph

Search for Another Location

Airport or City:

Trip Planner

Search our weather history database for the weather conditions in past years. The results will help you decide how hot, cold, wet, or windy it might be!

Date:

Astronomy

Oct. 07, 2013 Rise Set
Actual Time 6:54 AM EDT 6:21 PM EDT
Civil Twilight 6:26 AM EDT 6:49 PM EDT
Nautical Twilight 5:54 AM EDT 7:22 PM EDT
Astronomical Twilight 5:21 AM EDT 7:54 PM EDT
Moon 9:44 AM EDT (10/7) 8:00 PM EDT (10/7)
Length of Visible Light 12h 23m
Length of Day
11h 27m
Waxing Crescent, 8% of the Moon is Illuminated
Oct 7
Waxing Crescent
Oct 11
First Quarter
Oct 18
Full
Oct 26
Last Quarter
Nov 3
New

Hourly Weather History & Observations

Time (EDT) Temp. Dew Point Humidity Pressure Visibility Wind Dir Wind Speed Gust Speed Precip Events Conditions
12:53 AM 55.0 °F 54.0 °F 96% 30.11 in 5.0 mi North 4.6 mph - 0.01 in   Overcast
1:38 AM 55.4 °F 53.6 °F 94% 30.09 in 2.5 mi NNE 4.6 mph - N/A   Overcast
1:53 AM 55.0 °F 54.0 °F 96% 30.09 in 2.0 mi North 5.8 mph - N/A   Overcast
2:04 AM 55.4 °F 53.6 °F 94% 30.08 in 1.5 mi North 4.6 mph - N/A   Overcast
2:53 AM 55.0 °F 54.0 °F 96% 30.06 in 1.8 mi North 5.8 mph - 0.01 in Rain Light Rain
3:03 AM 55.4 °F 53.6 °F 94% 30.05 in 2.5 mi North 5.8 mph - 0.00 in   Overcast
3:18 AM 55.4 °F 53.6 °F 94% 30.05 in 3.0 mi North 3.5 mph - 0.00 in   Overcast
3:53 AM 55.0 °F 54.0 °F 96% 30.04 in 4.0 mi North 4.6 mph - 0.00 in   Overcast
4:48 AM 55.4 °F 53.6 °F 94% 30.03 in 2.0 mi Calm Calm - N/A   Overcast
4:53 AM 55.0 °F 54.0 °F 96% 30.04 in 2.0 mi North 3.5 mph - N/A   Overcast
5:00 AM 55.4 °F 53.6 °F 94% 30.03 in 1.5 mi North 3.5 mph - N/A   Overcast
5:39 AM 55.4 °F 55.4 °F 100% 30.02 in 2.5 mi North 3.5 mph - N/A   Overcast
5:53 AM 55.0 °F 55.0 °F 100% 30.02 in 2.5 mi NNE 4.6 mph - 0.00 in Rain Light Rain
6:53 AM 55.9 °F 55.0 °F 97% 30.01 in 2.5 mi Calm Calm - 0.00 in   Overcast
7:12 AM 55.4 °F 55.4 °F 100% 30.00 in 1.5 mi Calm Calm - N/A   Overcast
7:26 AM 55.4 °F 55.4 °F 100% 30.00 in 0.8 mi Calm Calm - N/A   Mist
7:53 AM 55.9 °F 55.0 °F 97% 30.00 in 0.5 mi NNE 3.5 mph - N/A Fog Fog
8:30 AM 55.4 °F 55.4 °F 100% 29.98 in 2.0 mi NNW 3.5 mph - 0.02 in Rain Light Rain
8:41 AM 55.4 °F 55.4 °F 100% 29.98 in 5.0 mi Calm Calm - 0.03 in Rain Light Rain
8:53 AM 57.0 °F 55.9 °F 96% 29.98 in 8.0 mi North 3.5 mph - 0.03 in   Overcast
9:53 AM 57.9 °F 57.0 °F 97% 29.96 in 5.0 mi Calm Calm - N/A   Overcast
10:53 AM 60.1 °F 57.9 °F 93% 29.93 in 4.0 mi Calm Calm - 0.00 in Rain Light Rain
11:53 AM 64.0 °F 62.1 °F 93% 29.90 in 6.0 mi WSW 3.5 mph - 0.00 in   Overcast
12:09 PM 64.4 °F 62.6 °F 94% 29.88 in 6.0 mi Calm Calm - N/A   Overcast
12:32 PM 68.0 °F 64.4 °F 88% 29.86 in 7.0 mi Variable 3.5 mph - N/A   Mostly Cloudy
12:40 PM 69.8 °F 64.4 °F 83% 29.85 in 9.0 mi SSW 3.5 mph - N/A   Mostly Cloudy
12:53 PM 71.1 °F 66.0 °F 84% 29.84 in 10.0 mi South 8.1 mph - N/A   Overcast
1:13 PM 73.4 °F 68.0 °F 83% 29.82 in 10.0 mi South 15.0 mph 21.9 mph 0.00 in Rain Light Rain
1:53 PM 75.0 °F 66.9 °F 76% 29.79 in 10.0 mi South 19.6 mph 29.9 mph 0.00 in   Overcast
2:53 PM 75.0 °F 66.0 °F 73% 29.76 in 10.0 mi South 20.7 mph 34.5 mph N/A   Overcast
3:53 PM 73.9 °F 66.0 °F 76% 29.76 in 10.0 mi South 20.7 mph 36.8 mph 0.01 in Rain Light Rain
4:29 PM 71.6 °F 68.0 °F 88% 29.77 in 1.5 mi South 18.4 mph 27.6 mph 0.07 in Rain Heavy Rain
4:42 PM 71.6 °F 68.0 °F 88% 29.77 in 4.0 mi South 15.0 mph 28.8 mph 0.13 in Rain Light Rain
4:53 PM 71.1 °F 68.0 °F 90% 29.76 in 10.0 mi South 13.8 mph 28.8 mph 0.13 in   Overcast
5:11 PM 71.6 °F 68.0 °F 88% 29.77 in 1.5 mi South 19.6 mph 24.2 mph 0.10 in Rain Heavy Rain
5:18 PM 71.6 °F 68.0 °F 88% 29.78 in 1.2 mi SW 10.4 mph 26.5 mph 0.11 in Rain Light Rain
5:20 PM 69.8 °F 68.0 °F 94% 29.78 in 2.5 mi SSW 12.7 mph 26.5 mph 0.12 in Rain Light Rain
5:35 PM 69.8 °F 64.4 °F 83% 29.78 in 8.0 mi SSW 12.7 mph 23.0 mph 0.17 in Rain Light Rain
5:43 PM 69.8 °F 64.4 °F 83% 29.79 in 9.0 mi SW 12.7 mph - 0.17 in Rain Light Rain
5:53 PM 68.0 °F 64.0 °F 87% 29.79 in 10.0 mi SSW 12.7 mph - 0.17 in Rain Light Rain
6:53 PM 66.9 °F 64.9 °F 93% 29.81 in 10.0 mi South 6.9 mph - 0.01 in Rain Light Rain
7:53 PM 64.9 °F 60.1 °F 84% 29.86 in 10.0 mi NW 16.1 mph 23.0 mph 0.04 in   Overcast
8:11 PM 60.8 °F 55.4 °F 82% 29.88 in 10.0 mi NNW 6.9 mph - N/A   Overcast
8:46 PM 60.8 °F 53.6 °F 77% 29.90 in 10.0 mi Variable 5.8 mph - N/A   Overcast
8:53 PM 60.1 °F 54.0 °F 80% 29.90 in 10.0 mi NW 5.8 mph - N/A   Overcast
9:53 PM 59.0 °F 55.9 °F 90% 29.91 in 10.0 mi NE 3.5 mph - N/A   Overcast
10:53 PM 57.9 °F 55.0 °F 90% 29.94 in 10.0 mi Calm Calm - N/A   Overcast
11:53 PM 55.9 °F 52.0 °F 87% 29.95 in 10.0 mi Calm Calm - N/A   Clear